MUOS-4

Last updated on Thu Jul 03 2025 00:02:46 GMT+0000 (Coordinated Universal Time)

1 40887U 15044A 25183.51020109 -.00000088 00000+0 00000+0 0 9993 2 40887 3.6953 39.0516 0057389 3.6605 136.7743 1.00272234 36057
UTC large
Height (km)
Speed (km/s)
/
Latitude / Longitude
Inclination (degrees)
Orbital Period (minutes)
Azimuth
Elevation
Range (km)
Doppler Factor

Next 0 passes for location: London (51.5072 / 0.1276)

Sorry there are no passes over London.